#timestamp,LO_Frequency,Hit,StdDev 
1593817215.7,286046996.6,N
1593817235.5,286047000.7,N
1593817255.3,286047001.1,N
1593817275.2,286046999.3,N
1593817295.0,286046997.3,N
1593817295.9,286046997.3,N
1593817315.7,286046997.9,N
1593817335.6,286046993.7,Y
1593817355.4,286046995.9,P
1593817375.3,286046997.6,N
1593817395.1,286046995.3,P
1593817415.8,286046995.5,N
1593817435.7,286046995.7,N
1593817455.5,286046993.5,Y
1593817475.4,286046998.1,P
1593817495.2,286046996.8,P
1593817515.0,286046995.0,P
1593817515.9,286046995.0,Y
1593817535.8,286046998.6,P
1593817555.6,286046999.8,N
1593817575.5,286047002.7,N
1593817595.3,286047002.3,N
1593817615.1,286046996.6,N
1593817635.9,286046999.9,N
1593817655.7,286047004.1,N
1593817675.5,286047002.8,N
1593817695.4,286046999.9,N
1593817715.2,286047004.4,N
1593817735.1,286047002.0,N
1593817736.0,286047002.0,N
1593817755.8,286047003.3,N
1593817775.6,286047003.7,N
1593817795.5,286047002.1,N
1593817815.3,286047005.1,N
1593817835.1,286047005.5,N
1593817855.9,286047005.5,N
1593817875.7,286047004.5,N
1593817895.6,286047009.2,Y
1593817915.4,286047002.9,P
1593817935.2,286047003.0,P
1593817955.1,286047003.4,P
1593817956.0,286047003.4,Y
1593817975.8,286046999.8,P
1593817995.7,286047002.3,N
1593818015.5,286047000.4,N
1593818035.3,286047001.4,N
1593818055.2,286047004.1,Y
1593818075.0,286047002.0,P
1593818075.9,286047002.0,P
1593818095.8,286047004.2,P
1593818115.6,286047002.0,N
1593818135.4,286047000.2,N
1593818155.3,286046998.8,N
1593818175.1,286046999.1,N
1593818195.8,286046998.2,N
1593818215.7,286046998.1,N
1593818235.5,286047002.1,N
1593818255.4,286047001.0,N
1593818275.2,286046996.6,N
1593818295.0,286046999.1,N
1593818296.0,286046999.1,N
1593818315.8,286047000.3,N
1593818335.6,286047001.4,N
1593818355.5,286047004.2,N
1593818375.3,286047000.6,N
1593818395.1,286046999.8,N
1593818415.9,286046999.7,N
1593818435.7,286047000.4,N
1593818455.6,286047000.9,N
1593818475.4,286047000.8,N
1593818495.2,286046996.5,N
1593818515.1,286046998.0,N
1593818516.0,286046998.0,N
1593818535.8,286046995.2,N
1593818555.6,286046997.9,N
1593818575.5,286046999.4,N
1593818595.3,286046997.0,N
1593818615.2,286047000.6,N
1593818635.9,286046998.5,N
1593818655.7,286047000.6,N
1593818675.6,286047001.2,N
1593818695.4,286047000.7,N
1593818715.3,286046998.3,N
1593818735.1,286047000.7,N
1593818736.0,286047000.7,N
1593818755.8,286046998.5,N
1593818775.7,286046998.5,N
1593818795.5,286047000.9,N
1593818815.3,286047001.1,N
1593818835.2,286046996.5,N
1593818855.0,286046997.0,N
1593818855.9,286046997.0,N
1593818875.8,286046997.4,N
1593818895.6,286046998.7,N
1593818915.4,286046999.2,N
1593818935.3,286046998.0,N
1593818955.1,286046995.4,N
1593818975.9,286046995.6,N
1593818995.7,286046995.7,N
1593819015.5,286046997.4,N
1593819035.4,286046996.5,N
1593819055.2,286046999.0,N
1593819075.1,286046998.9,N
1593819076.0,286046998.9,N
1593819095.8,286047000.7,N
1593819115.6,286047003.5,N
1593819135.5,286047007.4,Y
1593819155.3,286047004.0,P
1593819175.1,286047002.7,N
1593819195.9,286046999.8,N
1593819215.7,286047000.1,N
1593819235.6,286047002.7,N
1593819255.4,286047004.4,N
1593819275.2,286047001.9,N
1593819295.1,286047004.2,N
1593819296.0,286047004.2,N
1593819315.8,286047004.1,N
1593819335.7,286047004.2,N
1593819355.5,286047001.5,N
1593819375.3,286047002.7,N
1593819395.2,286047001.5,N
1593819415.0,286047000.5,N
1593819415.9,286047000.5,N
1593819435.8,286047001.1,N
1593819455.6,286046997.2,N
1593819475.4,286046998.4,N
1593819495.3,286047002.7,N
1593819515.1,286047002.4,N
1593819535.8,286047002.8,N
1593819555.7,286047000.8,N
1593819575.5,286046998.3,N
1593819595.4,286047000.6,N
1593819615.2,286047000.0,N
1593819635.0,286047001.6,N
1593819635.9,286047001.6,N
1593819655.8,286047004.6,N
1593819675.6,286047000.3,N
1593819695.4,286047000.2,N
1593819715.3,286047000.8,N
1593819735.1,286046996.9,N
1593819755.9,286046996.7,N
1593819775.7,286046998.2,N
1593819795.5,286047003.2,N
1593819815.4,286047003.5,N
1593819835.2,286047004.6,N
1593819855.1,286047003.7,N
1593819856.0,286047003.7,N
1593819875.8,286047001.9,N
1593819895.6,286047003.6,N
1593819915.5,286047004.0,N
1593819935.3,286047001.9,N
1593819955.1,286047000.1,N
1593819975.9,286046999.9,N
1593819995.7,286047004.2,N
1593820015.6,286047003.6,N
1593820035.4,286047003.2,N
1593820055.2,286047005.6,N
1593820075.1,286047004.7,N
1593820076.0,286047004.7,N
1593820095.8,286047005.3,N
1593820115.7,286047004.7,N
1593820135.5,286047003.1,N
1593820155.3,286047003.3,N
1593820175.2,286047002.6,N
1593820195.0,286047002.3,N
1593820195.9,286047002.3,N
1593820215.8,286047000.2,N
1593820235.6,286047000.3,N
1593820255.4,286047000.2,N
1593820275.3,286046998.1,N
1593820295.1,286046998.6,N
1593820315.8,286047000.6,N
1593820335.7,286046998.8,N
1593820355.5,286046996.6,N
1593820375.4,286046999.1,N
1593820395.2,286046998.7,N
1593820415.0,286046999.4,N
1593820415.9,286046999.4,N
1593820435.8,286046998.2,N
1593820455.6,286046999.1,N
1593820475.5,286046999.9,N
1593820495.3,286047001.0,N
1593820515.1,286047001.4,N
1593820535.9,286047001.7,N
1593820555.7,286047002.2,N
1593820575.5,286047001.7,N
1593820595.4,286047003.5,N
1593820615.2,286047004.2,N
1593820635.1,286047003.4,N
1593820636.0,286047003.4,N
1593820655.8,286047005.7,N
1593820675.6,286047003.5,N
1593820695.5,286047005.0,N
1593820715.3,286047008.8,Y
1593820735.1,286047006.5,P
1593820755.9,286047003.4,N
1593820775.7,286047003.8,N
1593820795.6,286047005.2,N
